THORAD AGENA D DEB

Satellite information

Favourite Embed

Satellite Type and Status

DEBRISIN ORBIT

Key statistics

Satellite THORAD AGENA D DEB at a glance.

Uptime

20120

Days in orbit

Revolutions

≈ 15.1

Per day

Orbit

SSO

Sun Synchronous Orbit

Inclination

100.0

Latest

Satellite identification and parameters

Extended collection of information and parameters for THORAD AGENA D DEB.

Object identification

Identified? True

Debris? True

Object name: THORAD AGENA D DEB

International designator: 1970-025PF

Object number (NORAD): 17717

Object ID (CCSDS): 17717

Country: UNITED STATES OF AMERICA (US)

Current information (Y/N): Y

RCS size: SMALL

Orbital parameters

Period: 95.466 minutes

Inclination: 99.9638 deg

SMA: 6919.265 km

Apoapsis: 570.909 km

Periapsis: 511.351 km

RAAN: 82.3973 deg

Eccentricy: 0.0043038

Argument of periapsis: 155.2216 deg

Mean anomaly: 205.1084 deg

Mean motion: 15.0838705 rev/day

Mean motion (dot): 0.00036267 rev/day2

B* drag term: 0.0022787 1/REarth

Two-line elements (TLE)

Creation date: May 8, 2025, 3:01 a.m.

Reference frame: TEME

Reference center: EARTH

Epoch: May 7, 2025, 7:48 a.m. UTC

TLE line 0: 0 THORAD AGENA D DEB

TLE line 1: 1 17717U 70025PF 25127.32566885 .00036267 00000-0 22787-2 0 9999

TLE line 2: 2 17717 99.9638 82.3973 0043038 155.2216 205.1084 15.08387050103697

Live tracking on map

Real-time ground track for satellite THORAD AGENA D DEB.

In-orbit conjunctions

A list of the most updated potential collisions computed for object THORAD AGENA D DEB.

Target Orbit TCA Probability of collision Miss distance Type
CZ-4 DEB SSO 2024-09-27 11:37:31 0.000124154 372.0 (m) DEBRIS
CZ-4 DEB SSO 2024-06-25 01:48:09 0.0005254622 48.0 (m) DEBRIS

Associated space launch

Meteorological research and development satellite

THORAD AGENA D DEB was lifted into orbit during the mission ‘Thorad SLV-2G Agena D | Nimbus 4’, on board a Thorad SLV-2G Agena D space rocket.

The launch took place on April 8, 1970, 8:17 a.m. from Space Launch Complex 2E.

For more information about the launch, click the button.

Launch to space Thorad SLV-2G Agena D | Nimbus 4
Thorad SLV-2G Agena D | Nimbus 4

Agency: N/A

Status: Launch Successful

Launch date: April 8, 1970, 8:17 a.m. UTC

Rocket: Thorad SLV-2G Agena D

Launch pad: Space Launch Complex 2E

Location: Vandenberg SFB, CA, USA

...

Latest news about this satellite

There are no fresh news available about this satellite. Check back as we update our databases every day.


Newsletter sign-up

Weekly statistics, charts and insights to help you stay on top of the space industry.